Location: Newark
(35.8833°N, 14.5000°E)
Time: 13:19:19
(UTC+00:00)

Altair - Pass Details

Date: 22 November 2019
Orbit: 1502 x 1682 km, 47.2° (Epoch: 16 December)

Event Time Altitude Azimuth Distance (km) Brightness Sun altitude
Rises 00:39:48 0° 231° (SW) 4,677 - -60.8°
Reaches altitude 10° 00:42:52 10° 231° (SW) 3,679 - -60.3°
Maximum altitude 00:52:07 86° 144° (SE) 1,508 - -58.5°
Exits shadow 00:59:26 18° 57° (ENE) 3,061 9.3 -57.1°
Drops below altitude 10° 01:01:19 10° 57° (ENE) 3,658 9.8 -56.8°
Sets 01:04:20 0° 57° (ENE) 4,650 10.5 -56.2°
